RH
86 96 76 70 72 60 58 61 53 52 56 59 69 68 66 56 49 54 59 73 75 73 67 64 60 61 58
60 83 60 58 59 52 63 54 56 69 80 74 73 84 66 50 52 59 71 75 71 66 62 59 58 56 57
76 65 59 51 54 50 47 52 68 72 82 78 88 78 62 57 64 72 75 69 64 63 62 62 59 56 56
46 53 46 48 45 45 50 59 76 79 88 85 83 68 62 72 77 72 67 66 66 67 66 62 60 58 55
52 49 50 47 40 49 60 74 74 82 88 90 65 64 67 73 73 69 66 68 69 67 66 66 67 63 57
53 43 49 44 57 62 77 73 100 100 92 73 68 68 74 75 73 70 74 70 72 76 76 75 67 58 46
47 47 46 48 64 82 85 98 94 93 75 70 68 78 79 78 76 77 75 76 81 83 83 74 67 56 49
43 46 50 65 81 96 100 98 92 75 69 71 85 87 80 76 73 76 78 84 90 90 82 73 68 63 70
44 51 66 87 100 100 94 87 78 72 79 93 90 86 90 83 85 86 88 89 91 84 76 77 72 66 64
63 78 88 100 100 93 82 77 80 95 96 92 95 96 94 90 86 88 82 80 84 76 80 86 72 66 51
86 94 100 100 100 92 80 87 93 91 100 99 95 91 92 94 91 80 74 83 81 84 87 77 60 44 33
100 100 100 100 96 87 84 90 89 94 98 90 87 90 93 93 81 76 85 84 86 92 89 65 44 36 33
100 100 100 98 100 95 98 100 99 100 98 89 87 92 93 88 81 81 85 88 94 92 80 50 40 36 33
97 100 100 100 100 100 100 100 100 100 98 90 91 93 99 93 84 84 86 88 96 89 55 42 41 37 32
99 100 100 100 100 100 100 100 98 100 90 92 99 97 97 90 92 85 88 95 94 53 46 41 35 32 30
100 100 100 100 100 100 100 98 100 95 92 100 98 93 99 94 88 85 93 90 58 45 44 40 31 30 30
100 100 100 100 100 98 100 98 96 98 98 96 89 99 94 90 87 90 87 60 48 44 41 38 32 27 27
Wind_Speed
110 113 114 109 110 110 108 107 100 97 86 79 73 69 67 68 56 49 43 40 37 35 34 33 35 35 34
108 107 109 108 106 105 98 99 90 82 75 71 68 68 69 57 51 45 40 36 35 34 36 36 37 38 38
105 107 107 104 101 99 92 88 77 72 70 66 68 66 59 53 46 41 37 36 36 38 39 40 41 41 41
101 102 100 95 94 90 79 76 69 67 65 66 66 62 53 45 40 37 37 39 39 40 43 45 47 47 46
96 94 90 87 84 77 71 68 62 61 65 66 61 51 46 41 38 38 40 40 41 44 47 51 53 55 54
91 89 82 76 72 66 64 59 60 62 65 62 52 45 42 39 41 42 42 42 45 49 53 57 60 60 57
82 78 73 68 63 60 57 60 61 63 60 53 45 42 41 43 45 46 46 47 50 54 58 62 64 60 52
74 69 65 60 53 53 57 62 63 57 52 45 43 43 44 46 48 49 50 51 55 58 62 66 66 55 46
65 59 55 49 50 57 61 59 54 50 46 43 43 46 48 49 52 55 56 57 59 61 65 67 61 51 48
53 47 47 49 53 56 54 51 46 45 45 44 45 49 52 55 56 56 57 60 62 65 68 67 58 52 51
46 45 49 52 57 58 50 46 45 43 43 47 49 51 55 56 58 58 59 62 65 68 71 67 59 55 51
45 47 50 53 55 50 45 42 44 46 48 50 52 55 57 59 60 59 61 64 68 71 72 64 59 56 51
46 49 53 53 46 46 46 47 48 50 53 54 55 57 59 61 61 60 63 66 70 73 69 63 60 56 53
50 51 49 45 46 48 50 51 52 54 55 56 58 60 62 62 63 65 67 70 74 72 66 62 58 57 55
50 45 45 46 49 50 51 54 55 56 56 58 61 63 65 65 67 68 72 75 75 67 62 60 57 55 56
44 46 47 50 51 53 56 58 59 59 60 62 64 66 67 67 70 72 75 77 70 65 62 61 59 56 55
46 49 51 54 57 59 61 63 63 63 65 66 67 68 69 71 73 74 78 71 66 63 59 55 59 58 55
Wind_Direction
292 294 295 298 298 300 303 303 305 307 308 307 308 308 309 310 307 306 303 301 299 298 299 299 300 300 295
294 294 294 296 298 301 300 302 303 303 304 306 305 306 309 306 304 302 300 297 295 297 299 300 299 296 291
291 294 294 295 298 299 300 299 300 302 301 303 303 305 303 303 305 303 300 298 302 304 303 303 301 298 293
289 291 294 296 298 298 298 297 297 299 301 301 303 304 302 302 300 299 301 303 303 303 305 304 303 299 294
289 292 295 294 295 295 295 296 296 298 301 301 303 300 300 303 300 300 302 302 302 303 305 306 304 301 296
288 290 292 293 292 294 292 293 296 296 299 302 300 300 300 298 300 301 301 302 303 305 307 307 306 303 296
288 288 290 290 292 288 291 292 294 297 299 297 296 296 295 297 299 301 301 303 304 306 306 307 307 304 297
285 287 286 288 286 289 289 291 296 295 294 294 294 293 294 295 299 302 302 303 303 304 306 308 307 302 293
283 281 282 284 287 285 290 296 293 293 293 292 294 296 298 300 302 303 303 301 302 303 306 309 307 300 295
277 277 280 281 284 292 294 292 292 290 291 296 298 299 300 301 301 301 301 301 303 306 309 310 306 303 300
271 276 278 281 287 294 291 291 291 291 294 296 298 299 300 300 301 302 302 303 306 308 311 309 306 302 297
272 278 281 285 290 289 289 288 291 294 296 298 299 301 300 301 302 303 304 306 308 310 311 309 306 301 299
272 275 282 288 286 287 287 288 292 295 298 301 302 302 303 303 302 305 307 308 309 310 310 306 304 301 298
275 283 282 282 283 283 287 290 293 296 299 302 302 304 305 304 306 307 308 309 310 310 308 306 303 301 299
279 278 279 280 284 284 287 290 294 296 299 302 303 304 304 306 307 307 309 311 311 309 307 304 301 299 299
270 271 276 281 282 285 288 290 294 297 300 301 302 303 304 305 305 308 310 310 309 308 306 304 300 300 300
269 271 277 281 282 285 287 290 294 296 298 299 302 303 303 305 306 309 310 310 307 305 303 301 301 301 301